• In Czech Republic
  • List of Countries
  • For 7 days
  • Water Temperature
  • Satellite Maps
  • Weather Map
  • Weather Widgets
  • user-avatar
    Login

    Hourly Weather Pantelimon

    Today, 18 July, Wednesday

    Time Temperature Precipitation Wind Pressure Humidity
    00:00 +22°C° 0 mm 3 mps 747 mmHg 60%
    01:00 +21°C° 0 mm 2 mps 747 mmHg 64%
    02:00 +21°C° 0 mm 2 mps 747 mmHg 66%
    03:00 +20°C° 0 mm 2 mps 747 mmHg 68%
    04:00 +20°C° 0 mm 2 mps 747 mmHg 70%
    05:00 +19°C° 0 mm 2 mps 747 mmHg 72%
    06:00 +21°C° 0.1 mm 3 mps 747 mmHg 68%
    07:00 +22°C° 0.1 mm 3 mps 747 mmHg 63%
    08:00 +26°C° 0 mm 2 mps 747 mmHg 57%
    09:00 +27°C° 0 mm 3 mps 747 mmHg 53%
    10:00 +28°C° 0 mm 3 mps 747 mmHg 49%
    11:00 +30°C° 0 mm 4 mps 747 mmHg 44%
    12:00 +30°C° 0 mm 4 mps 746 mmHg 42%
    13:00 +32°C° 0 mm 4 mps 746 mmHg 41%
    14:00 +33°C° 0 mm 5 mps 746 mmHg 39%
    15:00 +32°C° 0 mm 5 mps 746 mmHg 40%
    16:00 +32°C° 0 mm 4 mps 746 mmHg 41%
    17:00 +32°C° 0 mm 4 mps 745 mmHg 42%
    18:00 +29°C° 0 mm 4 mps 745 mmHg 47%
    19:00 +28°C° 0 mm 4 mps 745 mmHg 52%
    20:00 +26°C° 0 mm 4 mps 745 mmHg 57%
    21:00 +25°C° 0.1 mm 4 mps 746 mmHg 61%
    22:00 +24°C° 0.1 mm 3 mps 746 mmHg 65%
    23:00 +22°C° 0.1 mm 3 mps 746 mmHg 69%

    Tomorrow, 19 July, Thursday

    Time Temperature Precipitation Wind Pressure Humidity
    00:00 +22°C° 0.5 mm 3 mps 746 mmHg 71%
    01:00 +21°C° 0.5 mm 2 mps 746 mmHg 73%
    02:00 +21°C° 0.5 mm 2 mps 746 mmHg 75%
    03:00 +21°C° 0 mm 2 mps 746 mmHg 76%
    04:00 +20°C° 0 mm 2 mps 746 mmHg 76%
    05:00 +20°C° 0 mm 2 mps 746 mmHg 77%
    06:00 +21°C° 0 mm 2 mps 747 mmHg 74%
    07:00 +23°C° 0 mm 2 mps 747 mmHg 71%
    08:00 +24°C° 0 mm 3 mps 747 mmHg 67%
    09:00 +25°C° 0.2 mm 3 mps 747 mmHg 64%
    10:00 +26°C° 0.2 mm 3 mps 747 mmHg 61%
    11:00 +27°C° 0.2 mm 3 mps 747 mmHg 58%
    12:00 +28°C° 0.1 mm 3 mps 747 mmHg 53%
    13:00 +30°C° 0.1 mm 3 mps 747 mmHg 49%
    14:00 +31°C° 0.1 mm 3 mps 747 mmHg 45%
    15:00 +31°C° 0 mm 3 mps 747 mmHg 45%
    16:00 +31°C° 0 mm 2 mps 747 mmHg 45%
    17:00 +31°C° 0 mm 2 mps 747 mmHg 45%
    18:00 +30°C° 0.1 mm 2 mps 748 mmHg 50%
    19:00 +28°C° 0.1 mm 2 mps 748 mmHg 55%
    20:00 +27°C° 0.1 mm 2 mps 748 mmHg 59%
    21:00 +26°C° 0.4 mm 2 mps 748 mmHg 66%
    22:00 +25°C° 0.4 mm 2 mps 749 mmHg 72%
    23:00 +24°C° 0.4 mm 2 mps 749 mmHg 78%

    Day after tomorrow, 20 July, Friday

    Time Temperature Precipitation Wind Pressure Humidity
    00:00 +23°C° 0.2 mm 2 mps 749 mmHg 80%
    01:00 +23°C° 0.2 mm 2 mps 749 mmHg 82%
    02:00 +21°C° 0.2 mm 2 mps 749 mmHg 84%
    03:00 +22°C° 0 mm 1 mps 749 mmHg 85%
    04:00 +22°C° 0 mm 1 mps 749 mmHg 86%
    05:00 +21°C° 0 mm 1 mps 749 mmHg 87%
    06:00 +23°C° 0.1 mm 2 mps 749 mmHg 82%
    07:00 +24°C° 0.1 mm 2 mps 750 mmHg 76%
    08:00 +26°C° 0.1 mm 2 mps 750 mmHg 71%
    09:00 +27°C° 0.3 mm 2 mps 750 mmHg 65%
    10:00 +29°C° 0.3 mm 2 mps 750 mmHg 59%
    11:00 +30°C° 0.3 mm 2 mps 750 mmHg 54%
    12:00 +31°C° 0.6 mm 2 mps 750 mmHg 52%
    13:00 +31°C° 0.6 mm 2 mps 750 mmHg 50%
    14:00 +32°C° 0.6 mm 2 mps 749 mmHg 49%
    15:00 +32°C° 0.1 mm 2 mps 749 mmHg 49%
    16:00 +32°C° 0.1 mm 2 mps 749 mmHg 48%
    17:00 +32°C° 0.1 mm 1 mps 749 mmHg 48%
    18:00 +30°C° 0.1 mm 1 mps 750 mmHg 52%
    19:00 +29°C° 0.1 mm 1 mps 750 mmHg 57%
    20:00 +28°C° 0.1 mm 1 mps 750 mmHg 61%
    21:00 +27°C° 1.8 mm 2 mps 750 mmHg 67%
    22:00 +25°C° 1.8 mm 2 mps 750 mmHg 73%
    23:00 +24°C° 1.8 mm 2 mps 751 mmHg 79%

    21 July, Saturday

    Time Temperature Precipitation Wind Pressure Humidity
    00:00 +24°C° 0.3 mm 2 mps 751 mmHg 79%
    01:00 +24°C° 0.3 mm 2 mps 751 mmHg 80%
    02:00 +23°C° 0.3 mm 2 mps 751 mmHg 81%
    03:00 +23°C° 0.1 mm 2 mps 751 mmHg 82%
    04:00 +21°C° 0.1 mm 2 mps 751 mmHg 82%
    05:00 +21°C° 0.1 mm 2 mps 751 mmHg 83%
    06:00 +23°C° 0 mm 2 mps 751 mmHg 79%
    07:00 +25°C° 0 mm 2 mps 751 mmHg 74%
    08:00 +26°C° 0 mm 1 mps 752 mmHg 70%
    09:00 +27°C° 0 mm 2 mps 751 mmHg 64%
    10:00 +29°C° 0 mm 2 mps 751 mmHg 59%
    11:00 +30°C° 0 mm 2 mps 751 mmHg 54%
    12:00 +31°C° 0.1 mm 2 mps 751 mmHg 52%
    13:00 +31°C° 0.1 mm 2 mps 751 mmHg 49%
    14:00 +32°C° 0.1 mm 1 mps 751 mmHg 47%
    15:00 +32°C° 0.1 mm 1 mps 751 mmHg 47%
    16:00 +32°C° 0.1 mm 1 mps 750 mmHg 47%
    17:00 +32°C° 0.1 mm 1 mps 750 mmHg 47%
    18:00 +31°C° 0 mm 1 mps 750 mmHg 51%
    19:00 +29°C° 0 mm 1 mps 750 mmHg 55%
    20:00 +28°C° 0 mm 1 mps 750 mmHg 58%
    21:00 +27°C° 0.3 mm 1 mps 750 mmHg 62%
    22:00 +26°C° 0.3 mm 1 mps 751 mmHg 65%
    23:00 +26°C° 0.3 mm 1 mps 751 mmHg 68%

    22 July, Sunday

    Time Temperature Precipitation Wind Pressure Humidity
    00:00 +25°C° 0.7 mm 1 mps 751 mmHg 70%
    01:00 +25°C° 0.7 mm 1 mps 750 mmHg 72%
    02:00 +24°C° 0.7 mm 1 mps 750 mmHg 75%
    03:00 +24°C° 0.7 mm 1 mps 750 mmHg 76%
    04:00 +23°C° 0.7 mm 1 mps 750 mmHg 77%
    05:00 +21°C° 0.7 mm 0 mps 750 mmHg 79%
    06:00 +24°C° 0.1 mm 1 mps 750 mmHg 75%
    07:00 +26°C° 0.1 mm 1 mps 750 mmHg 71%
    08:00 +27°C° 0.1 mm 1 mps 750 mmHg 67%
    09:00 +28°C° 0.4 mm 1 mps 749 mmHg 63%
    10:00 +29°C° 0.4 mm 1 mps 749 mmHg 58%
    11:00 +31°C° 0.4 mm 2 mps 749 mmHg 53%
    12:00 +32°C° 0.4 mm 2 mps 749 mmHg 49%
    13:00 +32°C° 0.4 mm 2 mps 748 mmHg 45%
    14:00 +34°C° 0.4 mm 2 mps 748 mmHg 42%
    15:00 +34°C° 0.2 mm 2 mps 748 mmHg 42%
    16:00 +33°C° 0.2 mm 1 mps 747 mmHg 43%
    17:00 +33°C° 0.2 mm 1 mps 747 mmHg 43%
    18:00 +31°C° 0.2 mm 2 mps 747 mmHg 49%
    19:00 +30°C° 0.2 mm 3 mps 747 mmHg 55%
    20:00 +28°C° 0.2 mm 3 mps 747 mmHg 60%
    21:00 +27°C° 1.1 mm 3 mps 747 mmHg 68%
    22:00 +26°C° 1.1 mm 3 mps 748 mmHg 75%
    23:00 +24°C° 1.1 mm 3 mps 748 mmHg 82%

    23 July, Monday

    Time Temperature Precipitation Wind Pressure Humidity
    00:00 +24°C° 1.1 mm 3 mps 748 mmHg 84%
    01:00 +22°C° 1.1 mm 3 mps 748 mmHg 85%
    02:00 +23°C° 1.1 mm 2 mps 747 mmHg 87%
    03:00 +23°C° 0.5 mm 2 mps 747 mmHg 87%
    04:00 +23°C° 0.5 mm 2 mps 747 mmHg 87%
    05:00 +23°C° 0.5 mm 2 mps 747 mmHg 87%
    06:00 +23°C° 0.6 mm 2 mps 747 mmHg 84%
    07:00 +24°C° 0.6 mm 2 mps 747 mmHg 82%
    08:00 +25°C° 0.6 mm 2 mps 747 mmHg 79%
    09:00 +25°C° 1.2 mm 2 mps 747 mmHg 77%
    10:00 +26°C° 1.2 mm 3 mps 747 mmHg 75%
    11:00 +26°C° 1.2 mm 3 mps 747 mmHg 73%
    12:00 +27°C° 0.9 mm 3 mps 747 mmHg 70%
    13:00 +27°C° 0.9 mm 3 mps 747 mmHg 67%
    14:00 +28°C° 0.9 mm 4 mps 747 mmHg 64%
    15:00 +28°C° 0.3 mm 4 mps 747 mmHg 64%
    16:00 +28°C° 0.3 mm 3 mps 747 mmHg 64%
    17:00 +28°C° 0.3 mm 3 mps 747 mmHg 65%
    18:00 +27°C° 0 mm 3 mps 747 mmHg 68%
    19:00 +26°C° 0 mm 3 mps 748 mmHg 72%
    20:00 +25°C° 0 mm 2 mps 748 mmHg 76%
    21:00 +24°C° 0.2 mm 3 mps 748 mmHg 77%
    22:00 +24°C° 0.2 mm 3 mps 748 mmHg 78%
    23:00 +22°C° 0.2 mm 3 mps 749 mmHg 79%
    Show more